La Junta, CO

3:32 AM MDT on April 29, 2017 (GMT -0600)
La Junta Municipal

Weather History for KLHX - May, 2013

Change the Weather History Date:

Sunday, May 12, 2013

  Actual Average Record
Temperature  
Mean Temperature 65 °F 62 °F  
Max Temperature 85 °F 77 °F 97 °F (1956)
Min Temperature 44 °F 47 °F 32 °F (1971)
Degree Days  
Heating Degree Days 0 5  
Month to date heating degree days 133 76  
Since 1 July heating degree days 5064 5199  
Cooling Degree Days 0 1  
Month to date cooling degree days 0 12  
Year to date cooling degree days 4 21  
Growing Degree Days 14 (Base 50)    
Moisture  
Dew Point 32 °F    
Average Humidity 47    
Maximum Humidity 83    
Minimum Humidity 11    
Precipitation  
Precipitation 0.00 in 0.05 in 0.45 in (1985)
Month to date precipitation 0.17  
Year to date precipitation 0.62  
Sea Level Pressure  
Sea Level Pressure 30.04 in    
Wind  
Wind Speed 10 mph (West)    
Max Wind Speed 23 mph    
Max Gust Speed 29 mph    
Visibility 10 miles    
Events      
T = Trace of Precipitation, MM = Missing Value Source: NWS Daily Summary

Daily Weather History Graph

Daily Weather History Graph

Search for Another Location

Airport or City:

Trip Planner

Search our weather history database for the weather conditions in past years. The results will help you decide how hot, cold, wet, or windy it might be!

Date:

Astronomy

May. 12, 2013 Rise Set
Actual Time 5:45 AM MDT 7:55 PM MDT
Civil Twilight 5:16 AM MDT 8:24 PM MDT
Nautical Twilight 4:40 AM MDT 9:00 PM MDT
Astronomical Twilight 4:01 AM MDT 9:39 PM MDT
Moon 7:43 AM MDT (5/12) 10:23 PM MDT (5/12)
Length of Visible Light 15h 08m
Length of Day
14h 09m
Waxing Crescent, 7% of the Moon is Illuminated
May 12
Waxing Crescent
May 17
First Quarter
May 24
Full
May 31
Last Quarter
Jun 8
New

Hourly Weather History & Observations

Time (MDT) Temp. Windchill Dew Point Humidity Pressure Visibility Wind Dir Wind Speed Gust Speed Precip Events Conditions
12:53 AM 55.9 °F - 39.9 °F 55% 30.14 in 10.0 mi South 6.9 mph - N/A   Clear
1:53 AM 54.0 °F - 37.9 °F 55% 30.12 in 10.0 mi SSW 9.2 mph - N/A   Clear
2:53 AM 50.0 °F - 37.9 °F 63% 30.12 in 10.0 mi WSW 6.9 mph - N/A   Clear
3:53 AM 50.0 °F - 37.9 °F 63% 30.10 in 10.0 mi SW 9.2 mph - N/A   Clear
4:53 AM 48.0 °F - 37.9 °F 68% 30.10 in 10.0 mi West 13.8 mph - N/A   Clear
5:53 AM 45.0 °F 39.7 °F 39.0 °F 80% 30.11 in 10.0 mi West 10.4 mph - N/A   Clear
6:53 AM 48.9 °F - 41.0 °F 74% 30.12 in 10.0 mi WSW 6.9 mph - N/A   Clear
7:53 AM 53.1 °F - 41.0 °F 64% 30.12 in 10.0 mi West 13.8 mph - N/A   Clear
8:53 AM 61.0 °F - 41.0 °F 48% 30.10 in 10.0 mi West 11.5 mph - N/A   Clear
9:53 AM 71.1 °F - 37.0 °F 29% 30.07 in 10.0 mi WNW 13.8 mph - N/A   Clear
10:53 AM 77.0 °F - 30.9 °F 19% 30.05 in 10.0 mi NNW 10.4 mph 19.6 mph N/A   Clear
11:53 AM 79.0 °F - 27.0 °F 15% 30.03 in 10.0 mi NNW 8.1 mph - N/A   Clear
12:53 PM 81.0 °F - 27.0 °F 14% 30.00 in 10.0 mi NW 9.2 mph 19.6 mph N/A   Clear
1:53 PM 84.0 °F - 24.1 °F 11% 30.00 in 10.0 mi North 13.8 mph 23.0 mph N/A   Clear
2:53 PM 82.0 °F - 24.1 °F 12% 30.00 in 10.0 mi WNW 8.1 mph 18.4 mph N/A   Clear
3:53 PM 82.9 °F - 24.1 °F 12% 29.98 in 10.0 mi NNW 8.1 mph 18.4 mph N/A   Clear
4:53 PM 84.0 °F - 25.0 °F 12% 29.98 in 10.0 mi North 18.4 mph 21.9 mph N/A   Clear
5:53 PM 82.0 °F - 26.1 °F 13% 29.98 in 10.0 mi NNE 12.7 mph 20.7 mph N/A   Partly Cloudy
6:53 PM 80.1 °F - 27.0 °F 14% 29.97 in 10.0 mi NNE 11.5 mph - N/A   Clear
7:53 PM 73.0 °F - 28.0 °F 19% 29.99 in 10.0 mi NE 6.9 mph - N/A   Clear
8:53 PM 71.1 °F - 28.0 °F 20% 29.98 in 10.0 mi ESE 5.8 mph - N/A   Clear
9:53 PM 69.1 °F - 28.0 °F 22% 29.98 in 10.0 mi SSE 4.6 mph - N/A   Clear
10:53 PM 66.9 °F - 28.9 °F 24% 29.97 in 10.0 mi South 6.9 mph - N/A   Clear
11:53 PM 64.0 °F - 28.9 °F 27% 29.97 in 10.0 mi SSW 9.2 mph - N/A   Clear